ONEWEB-0034 (45454 NORAD) Tracking and Keplerian Element Data

This shows tracking and keplerian element data for the satellite.

Feedback or suggestion? Click here.




ElementValue
Catalog45454
NameONEWEB-0034
Epoch Orbit159
Epoch Day93.91667824
Epoch Year2020
RAAN134.6026
Inclination87.3988
Eccentricity0.0022429
Argument of Perigee260.7156
Mean Anonmoly183.5021
Mean Motion15.34505215
Decay Rate0.00040439
L11 45454U 20020AG 20093.91667824 .00040439 00000-0 11957-2 0 9998
L22 45454 87.3988 134.6026 0022429 260.7156 183.5021 15.34505215 1591

Live tracking and technical data element details for ONEWEB-0034 (NORAD 45454). ONEWEB-0034 can be tracked NOW for your location showing map with azimuth and elevation plus other details from your city location.

Track the satellite on the map from your city or location and see movement details for azimuth, elevation, latitude, longitude, range, height, and movement on the map or in text.







IsCatalogInMostPopularTable: catalog: 45454, numindb: 3
Update: records affected: 1



GetName: 45454 ONEWEB-0034

Hit Count: updated at: Tue, 07 Apr 2020 16:54:19 GMT